Wind_Speed
7 7 8 9 9 11 10 9 9 8 7 8 10 11 12 12 12 12 11 11 11 10 7 4 5 5 5 6 7 6 5 2 3 6 8 8 8 8 9 11 11 14 12 9 9 11 11 11 9
3 5 6 7 8 9 10 11 10 9 9 8 8 9 9 10 11 11 11 11 10 10 10 7 5 3 4 3 3 3 3 1 1 2 4 6 8 9 9 10 10 10 12 12 10 10 9 10 9
3 5 5 8 9 9 11 13 14 12 11 10 10 9 10 9 9 10 9 9 9 8 7 7 7 5 3 4 3 2 2 2 1 3 4 5 7 9 10 10 11 12 11 11 12 10 10 12 12
4 6 8 10 11 12 12 12 12 13 11 12 12 12 10 10 10 10 10 9 8 8 7 6 6 6 6 4 4 5 4 5 5 5 4 4 7 8 9 10 10 12 13 12 13 14 14 15 15
8 9 11 12 13 15 14 13 11 11 12 13 12 12 11 10 9 10 11 11 11 10 10 8 7 6 6 6 5 4 6 8 9 9 9 8 8 8 9 9 10 11 12 14 14 15 16 16 16
10 13 15 16 15 15 16 15 14 12 11 13 15 14 10 9 9 7 7 10 12 13 12 12 11 10 9 7 6 6 7 7 9 12 12 12 12 12 12 12 12 12 13 14 15 16 18 18 18
12 16 18 19 16 15 13 14 16 13 13 14 15 15 13 12 12 12 11 9 10 12 13 14 15 15 14 13 12 10 9 9 10 11 12 15 16 16 15 16 16 16 16 17 17 17 18 19 19
17 20 21 20 19 16 13 13 13 14 16 18 20 18 16 13 14 14 16 13 12 13 13 13 15 16 17 17 16 15 15 13 13 13 13 14 15 18 19 20 20 21 21 20 20 20 20 20 20
20 23 23 20 18 16 15 14 14 15 17 20 22 23 18 16 15 15 17 18 16 15 15 16 14 15 16 17 19 20 20 19 18 18 17 16 17 19 18 19 23 25 25 24 24 24 23 23 23
24 24 21 20 17 18 16 17 17 17 20 21 24 21 19 18 18 17 18 19 17 17 18 19 20 18 17 18 19 20 22 23 23 23 22 21 21 22 21 21 23 23 25 27 28 28 27 27 27
25 23 20 20 21 21 20 20 21 20 21 19 20 23 24 21 18 17 18 19 20 20 19 20 19 20 21 21 20 20 21 23 25 26 27 26 25 25 26 25 25 26 27 27 28 29 29 30 30
20 20 21 25 25 23 22 22 22 24 24 24 21 23 25 25 23 21 19 19 18 20 21 21 23 23 24 24 24 24 23 23 23 25 27 28 29 29 29 30 30 30 30 31 31 31 31 31 31
18 23 25 25 28 25 25 25 24 24 26 30 31 28 27 26 24 23 23 20 19 18 20 22 22 24 25 26 28 28 27 27 27 26 26 27 29 30 31 32 33 34 35 35 36 35 34 34 34
24 25 25 27 28 27 27 28 26 26 27 30 29 32 32 28 25 24 24 23 24 24 23 24 24 25 26 29 30 30 31 31 31 30 31 30 31 32 34 34 35 35 37 40 40 40 39 38 38
29 26 25 26 28 30 30 28 28 25 26 29 32 32 31 29 28 27 27 26 27 27 28 27 26 26 28 29 31 34 34 33 34 34 34 34 35 36 37 37 39 39 38 38 41 43 43 43 43
30 29 27 28 29 31 30 23 25 27 30 32 34 32 30 28 29 30 30 29 28 26 25 27 29 27 27 29 31 33 35 36 37 38 39 38 38 38 40 41 42 44 45 41 41 42 44 45 45
31 31 28 26 29 32 32 27 24 30 35 35 34 30 26 27 28 30 30 31 32 31 30 29 31 33 33 32 32 32 34 36 36 38 41 43 43 43 43 44 45 47 49 49 47 46 47 47 47
31 32 32 29 30 35 34 36 33 38 37 34 30 28 27 26 27 28 30 31 32 33 33 31 30 31 34 36 35 35 35 36 38 39 40 42 45 47 47 47 48 50 50 51 52 52 53 52 52
35 36 37 34 35 37 34 37 36 35 32 29 29 28 29 30 32 34 34 34 34 34 35 36 36 35 35 35 36 39 42 42 41 42 45 46 46 45 47 47 48 48 49 52 53 54 56 56 58
39 38 36 36 35 36 34 32 33 31 34 33 31 29 29 31 34 34 35 35 36 37 38 37 36 36 37 39 40 41 42 43 45 47 47 48 49 49 50 50 50 50 50 52 54 56 56 58 59
38 34 35 35 35 38 38 38 35 35 36 36 34 35 36 35 36 36 35 36 35 36 37 37 37 38 39 39 40 41 42 44 46 49 51 53 54 54 54 56 57 56 55 55 55 56 57 57 58
34 35 35 36 38 40 42 45 40 37 39 39 38 39 40 40 40 39 40 41 39 39 40 41 41 41 42 42 43 45 46 48 48 49 52 53 56 58 57 56 56 58 59 58 57 58 60 60 60
34 35 37 39 42 45 43 45 45 43 43 40 42 40 40 42 43 44 43 44 42 40 40 39 40 41 42 43 45 46 49 51 53 56 57 57 58 58 58 58 57 58 60 62 60 58 59 60 60
35 37 39 43 45 48 42 44 49 48 46 44 45 47 47 46 46 46 47 47 47 47 47 47 48 50 50 51 52 53 55 56 58 59 63 65 64 62 62 63 64 64 64 66 68 68 68 66 63
38 40 43 46 46 48 46 46 46 47 47 47 47 48 49 50 49 49 49 50 51 52 52 54 55 54 55 56 56 59 61 63 63 63 65 68 70 69 69 69 69 70 70 70 72 74 74 73 73
44 45 43 47 47 47 49 54 54 53 51 48 48 49 49 51 52 53 55 57 57 56 58 60 59 59 60 63 63 63 64 67 67 66 70 74 78 76 75 75 77 77 76 76 77 77 78 78 81
42 44 41 46 48 49 52 54 54 54 51 50 49 49 50 52 55 57 61 62 63 64 65 63 64 65 65 66 68 68 69 69 71 73 74 76 78 82 83 83 83 83 81 82 83 82 82 82 83
41 43 47 47 49 51 52 52 51 49 49 50 51 53 54 57 59 61 61 63 66 67 68 69 70 71 71 70 70 71 71 72 73 75 77 78 84 83 85 87 88 89 88 86 84 82 80 78 82
42 44 43 44 49 52 54 59 58 53 52 55 55 57 59 59 61 63 66 67 69 70 72 73 73 74 74 75 76 77 77 77 78 79 80 81 81 83 87 91 92 88 93 90 89 90 90 90 91
42 43 43 47 50 52 55 59 58 53 54 57 57 59 63 65 67 69 70 71 72 74 75 75 76 77 78 79 80 80 81 82 83 84 84 83 83 85 89 93 97 98 97 98 97 97 100 102 98
Wind_Direction
86 68 52 33 21 23 11 359 5 16 22 16 14 14 15 20 20 19 24 26 32 25 12 5 352 6 34 42 56 76 74 63 245 251 258 264 271 269 273 280 282 264 265 269 258 253 240 239 251
71 46 19 10 6 3 346 345 346 356 3 13 6 358 359 10 9 8 16 21 23 27 27 17 5 343 344 12 29 39 65 110 180 260 271 269 269 269 273 275 279 276 272 271 272 265 257 243 240
19 2 349 339 338 337 337 336 338 346 346 348 353 352 342 337 338 338 345 351 1 10 14 19 19 7 334 307 310 309 320 322 290 260 249 250 262 272 273 273 266 268 269 271 263 257 259 265 258
330 329 327 322 328 326 327 328 329 331 334 340 344 344 341 339 331 323 316 315 322 332 340 347 354 360 2 348 302 281 271 271 271 262 253 269 271 264 268 271 269 269 270 272 270 265 259 262 260
320 322 320 322 321 322 324 325 323 318 323 328 333 335 338 342 337 332 323 316 310 308 309 316 319 323 332 333 331 308 278 264 261 262 262 255 251 261 272 272 269 268 269 265 264 266 265 265 262
317 319 316 315 318 318 321 316 311 313 318 317 317 321 326 328 321 320 323 326 319 311 302 297 299 300 299 303 308 305 301 290 273 266 265 262 260 257 257 260 264 264 261 261 260 257 258 260 261
312 318 313 309 310 311 310 304 306 312 312 308 309 311 312 313 318 317 312 304 303 303 300 296 290 286 287 286 286 285 285 286 287 282 274 267 265 262 259 261 260 260 261 259 259 259 258 257 258
305 309 304 304 303 306 301 299 299 303 306 306 314 314 309 306 305 306 307 305 299 294 293 290 289 287 284 282 279 275 273 273 272 274 273 275 273 267 262 261 261 260 261 262 261 260 259 259 259
301 300 299 297 299 299 297 300 293 291 295 305 316 309 308 301 291 287 287 292 297 299 301 297 289 287 284 280 276 274 271 268 265 264 265 267 270 272 272 269 265 263 261 260 261 264 263 261 259
298 295 294 289 291 285 291 298 294 290 289 305 304 301 301 302 301 298 297 297 296 298 299 297 298 293 287 283 279 276 271 269 267 264 261 258 259 264 265 265 267 267 267 265 264 262 261 262 262
295 292 287 285 287 286 290 300 299 296 295 298 296 302 306 306 304 300 297 295 293 291 287 285 283 284 286 281 278 276 276 274 269 267 264 261 259 259 261 262 263 265 265 264 264 263 262 262 262
287 287 286 287 285 282 285 293 304 303 307 299 294 291 295 299 302 301 307 304 291 282 281 279 279 277 274 272 271 271 270 269 269 266 265 264 261 260 260 262 262 262 263 265 263 261 261 261 260
280 283 283 283 283 285 290 295 296 297 298 296 297 290 290 298 300 295 295 295 287 277 275 274 271 271 269 267 267 264 263 263 264 264 262 261 260 260 262 262 262 261 261 260 262 263 262 263 262
279 278 275 276 278 280 283 288 291 292 290 289 292 297 302 302 299 292 288 290 288 285 280 280 278 271 267 270 268 266 265 266 266 266 265 263 262 261 261 262 262 262 262 262 260 260 259 260 261
280 280 280 279 281 283 283 286 288 287 284 285 295 301 304 298 293 289 287 284 284 286 287 288 281 277 276 269 265 268 268 265 266 265 265 266 267 265 264 264 264 265 263 264 263 261 260 259 258
281 281 279 282 283 282 283 284 286 284 284 284 290 294 298 293 290 290 289 290 290 290 288 288 285 282 276 271 271 267 262 265 266 265 263 261 260 262 265 267 267 266 267 263 263 264 263 262 260
281 286 287 285 287 286 287 288 280 282 282 286 289 291 283 282 282 283 285 287 290 288 285 282 281 282 282 279 272 267 267 265 262 262 265 269 268 264 261 260 260 263 266 267 263 262 262 263 263
284 284 284 287 281 279 282 282 285 280 282 287 290 289 288 285 280 278 280 283 284 286 287 285 281 279 279 279 276 273 269 265 264 263 262 262 263 265 265 265 264 262 261 263 266 265 264 263 264
280 280 282 281 278 277 276 280 280 283 284 284 284 282 281 280 281 284 285 284 284 281 284 288 290 288 284 280 279 277 273 270 268 265 263 263 264 264 263 262 261 262 264 264 263 264 265 265 264
279 278 282 280 278 284 284 282 281 283 286 289 283 281 280 279 279 276 277 279 282 285 286 286 282 279 279 280 280 280 279 274 269 266 265 263 261 262 264 263 262 262 262 260 260 261 261 262 263
274 278 276 280 280 284 285 283 282 284 284 284 284 286 286 285 285 285 284 282 280 280 281 281 279 279 277 274 272 270 269 270 271 270 267 264 262 261 261 263 265 265 263 263 261 259 261 261 261
273 273 277 280 284 283 285 286 285 282 281 281 282 284 286 287 287 284 283 283 282 279 278 274 272 273 273 272 271 272 272 270 269 266 264 263 263 263 262 262 263 265 265 264 261 261 261 261 258
270 274 277 279 279 283 284 288 291 288 288 288 288 289 289 287 287 287 287 286 284 282 280 277 276 274 271 269 268 268 268 268 269 270 267 264 262 262 262 262 261 260 259 259 259 255 254 255 257
272 272 273 276 279 280 285 283 291 292 291 295 295 296 295 294 293 293 291 290 289 287 286 285 283 280 280 279 279 279 273 268 267 266 266 266 264 262 262 262 262 260 259 259 258 257 256 255 255
273 272 275 276 278 280 282 284 286 288 290 289 292 290 289 291 289 288 285 284 284 284 283 283 282 282 281 279 277 276 274 275 271 268 265 261 261 264 266 265 264 263 262 259 259 259 259 259 259
275 275 274 278 278 283 287 292 295 295 293 292 290 290 291 289 289 289 288 287 286 284 284 285 284 281 278 277 276 274 271 271 270 266 262 263 263 262 262 264 264 265 265 263 262 261 261 262 259
270 274 275 273 275 279 285 289 292 289 291 290 290 289 286 285 284 283 283 284 285 285 285 283 279 278 277 276 276 275 273 273 272 269 265 264 266 268 269 267 268 269 268 267 267 265 264 263 264
272 273 273 276 276 278 285 287 285 285 286 289 288 284 282 281 281 282 283 284 283 281 281 281 280 280 281 281 279 278 276 275 275 274 273 274 275 274 269 267 271 271 270 266 266 267 266 267 266
268 272 275 277 278 282 284 285 286 286 287 286 284 281 280 279 278 277 277 278 278 280 280 281 282 282 283 283 283 282 282 281 280 279 278 278 277 275 271 271 273 272 270 267 268 268 268 267 265
273 277 279 278 281 280 278 284 285 288 286 282 282 279 276 275 276 277 277 278 278 279 280 280 280 281 281 282 283 283 283 282 283 282 281 279 277 275 273 272 273 273 272 270 266 269 270 271 272
Height
5876 5875 5875 5874 5876 5873 5872 5872 5869 5868 5868 5867 5865 5865 5864 5863 5862 5863 5861 5859 5858 5857 5856 5856 5856 5856 5856 5855 5855 5854 5855 5855 5856 5857 5858 5859 5859 5860 5861 5862 5862 5862 5864 5864 5865 5866 5867 5868 5869
5877 5876 5876 5875 5875 5873 5872 5871 5870 5869 5868 5867 5867 5865 5864 5864 5863 5862 5861 5860 5859 5858 5857 5856 5855 5855 5855 5855 5856 5856 5855 5856 5856 5857 5858 5858 5858 5859 5860 5861 5861 5861 5862 5862 5863 5864 5865 5866 5867
5878 5877 5877 5875 5874 5873 5872 5870 5869 5868 5867 5867 5866 5866 5865 5864 5863 5862 5861 5860 5859 5858 5858 5857 5856 5855 5855 5855 5855 5856 5856 5857 5857 5857 5857 5858 5858 5858 5859 5859 5859 5859 5860 5861 5862 5863 5864 5864 5865
5877 5878 5877 5875 5873 5873 5872 5871 5869 5868 5867 5866 5865 5865 5865 5864 5863 5861 5860 5860 5859 5858 5857 5857 5856 5855 5854 5854 5854 5854 5855 5856 5857 5857 5857 5858 5858 5858 5858 5858 5858 5858 5858 5859 5859 5860 5861 5862 5863
5876 5876 5875 5874 5873 5871 5870 5870 5869 5867 5865 5864 5864 5864 5863 5863 5862 5861 5859 5859 5858 5858 5857 5857 5856 5856 5855 5855 5854 5854 5854 5854 5854 5855 5856 5857 5857 5857 5857 5857 5857 5857 5857 5857 5857 5858 5859 5859 5860
5875 5874 5873 5873 5872 5871 5869 5868 5866 5866 5865 5864 5863 5862 5863 5861 5860 5859 5859 5858 5857 5857 5857 5856 5855 5855 5855 5855 5854 5854 5853 5853 5853 5853 5854 5854 5854 5855 5854 5854 5855 5855 5855 5855 5856 5856 5856 5857 5857
5873 5872 5870 5870 5870 5869 5868 5866 5865 5865 5864 5863 5863 5862 5862 5861 5860 5859 5858 5856 5855 5855 5855 5854 5854 5853 5853 5853 5853 5853 5852 5852 5851 5851 5851 5851 5851 5852 5852 5852 5852 5852 5853 5853 5853 5854 5854 5854 5854
5871 5870 5867 5867 5866 5867 5866 5865 5864 5863 5862 5860 5859 5860 5860 5860 5860 5858 5856 5855 5853 5852 5851 5851 5851 5851 5851 5851 5850 5850 5850 5850 5849 5849 5849 5848 5848 5848 5849 5849 5849 5849 5849 5850 5850 5850 5850 5850 5850
5868 5866 5865 5864 5863 5863 5862 5862 5861 5861 5859 5858 5857 5854 5855 5856 5856 5855 5854 5853 5852 5851 5850 5848 5848 5847 5847 5847 5847 5847 5847 5847 5846 5846 5846 5846 5845 5845 5846 5846 5845 5845 5846 5846 5846 5846 5846 5847 5847
5864 5862 5861 5860 5860 5859 5859 5859 5859 5859 5857 5856 5852 5851 5851 5852 5852 5852 5851 5850 5850 5850 5848 5847 5846 5845 5844 5843 5842 5842 5842 5843 5843 5843 5843 5843 5842 5841 5842 5842 5841 5841 5841 5841 5842 5841 5841 5842 5842
5860 5858 5857 5856 5856 5856 5855 5856 5855 5854 5854 5853 5850 5847 5845 5846 5848 5848 5848 5847 5846 5845 5845 5843 5842 5841 5841 5840 5839 5838 5838 5838 5838 5838 5838 5838 5839 5838 5837 5837 5837 5836 5836 5836 5836 5836 5836 5836 5837
5856 5854 5853 5851 5851 5851 5852 5851 5850 5848 5847 5845 5847 5845 5842 5843 5843 5843 5843 5842 5841 5840 5839 5838 5838 5837 5836 5835 5834 5834 5833 5832 5832 5832 5832 5833 5833 5833 5833 5832 5832 5832 5832 5831 5831 5831 5832 5831 5831
5852 5851 5849 5848 5845 5847 5847 5847 5847 5846 5843 5838 5838 5838 5839 5840 5839 5838 5838 5837 5836 5835 5833 5832 5832 5831 5830 5830 5829 5827 5827 5827 5826 5826 5826 5826 5826 5827 5826 5826 5826 5826 5826 5825 5825 5825 5826 5826 5826
5847 5847 5846 5845 5843 5843 5843 5843 5843 5842 5839 5834 5834 5832 5832 5834 5833 5832 5831 5831 5829 5828 5828 5827 5826 5825 5824 5823 5822 5822 5822 5821 5821 5821 5820 5821 5820 5820 5819 5819 5819 5819 5818 5818 5818 5818 5818 5818 5819
5839 5841 5840 5840 5840 5838 5838 5839 5837 5837 5834 5831 5828 5828 5827 5827 5826 5825 5825 5824 5823 5823 5821 5821 5820 5819 5819 5818 5816 5816 5815 5815 5815 5815 5814 5814 5814 5813 5812 5811 5811 5809 5810 5810 5810 5809 5810 5810 5810
5833 5834 5835 5834 5832 5830 5829 5834 5831 5829 5826 5824 5824 5823 5822 5820 5819 5818 5818 5817 5817 5817 5816 5815 5813 5813 5812 5810 5810 5809 5808 5808 5807 5806 5805 5805 5805 5805 5804 5804 5803 5801 5800 5802 5802 5801 5801 5800 5800
5825 5825 5827 5827 5825 5822 5822 5825 5827 5823 5819 5819 5818 5817 5816 5815 5814 5813 5811 5810 5810 5809 5809 5809 5807 5805 5804 5803 5802 5801 5801 5801 5800 5798 5797 5797 5796 5796 5795 5794 5793 5792 5791 5791 5792 5791 5790 5790 5790
5818 5818 5818 5820 5820 5815 5815 5813 5816 5813 5813 5811 5811 5811 5810 5808 5807 5807 5806 5805 5803 5801 5800 5799 5799 5798 5796 5795 5794 5793 5792 5791 5790 5789 5789 5788 5786 5785 5785 5784 5783 5782 5781 5780 5781 5781 5780 5780 5779
5811 5810 5810 5811 5810 5807 5809 5806 5806 5804 5803 5804 5804 5803 5802 5801 5800 5799 5798 5796 5795 5795 5794 5792 5790 5789 5788 5787 5786 5784 5783 5782 5781 5779 5778 5776 5775 5774 5773 5772 5771 5770 5771 5771 5770 5769 5769 5769 5768
5803 5802 5802 5800 5799 5797 5798 5798 5797 5797 5795 5795 5795 5795 5794 5793 5794 5793 5792 5790 5788 5786 5785 5783 5782 5781 5780 5778 5777 5775 5773 5772 5770 5769 5768 5766 5765 5763 5761 5760 5759 5759 5757 5756 5757 5756 5755 5755 5755
5793 5794 5792 5792 5791 5788 5788 5788 5789 5789 5788 5787 5786 5785 5783 5783 5782 5781 5781 5780 5779 5779 5777 5775 5773 5770 5768 5767 5765 5763 5762 5760 5759 5757 5756 5754 5752 5750 5750 5748 5746 5745 5744 5743 5742 5741 5742 5742 5742
5786 5784 5784 5783 5781 5781 5780 5775 5779 5780 5778 5778 5778 5776 5775 5774 5772 5771 5769 5768 5768 5767 5765 5763 5761 5759 5758 5755 5752 5750 5749 5747 5745 5744 5741 5740 5738 5736 5734 5733 5733 5732 5731 5729 5727 5728 5728 5727 5727
5777 5775 5774 5772 5771 5770 5772 5770 5765 5764 5764 5766 5766 5765 5765 5764 5763 5761 5759 5757 5755 5753 5751 5749 5747 5745 5743 5741 5739 5737 5734 5733 5732 5730 5727 5725 5722 5721 5719 5717 5716 5716 5715 5714 5714 5713 5711 5710 5712
5767 5766 5764 5762 5762 5759 5763 5760 5755 5754 5754 5753 5751 5750 5748 5747 5746 5744 5741 5740 5739 5737 5735 5733 5732 5730 5729 5727 5725 5725 5722 5718 5715 5713 5711 5709 5705 5703 5702 5700 5699 5697 5697 5697 5697 5696 5696 5696 5695
5756 5755 5753 5752 5753 5752 5750 5748 5748 5745 5744 5742 5742 5739 5737 5736 5734 5733 5730 5728 5727 5725 5722 5719 5717 5715 5713 5711 5710 5708 5706 5704 5701 5697 5694 5691 5689 5686 5684 5682 5681 5681 5679 5678 5678 5676 5677 5677 5678
5745 5744 5744 5742 5738 5739 5738 5734 5735 5732 5731 5731 5730 5728 5727 5723 5720 5719 5716 5714 5711 5708 5707 5704 5702 5701 5697 5694 5692 5690 5688 5686 5683 5680 5678 5675 5672 5668 5666 5662 5661 5659 5658 5657 5657 5656 5656 5655 5656
5734 5734 5735 5731 5730 5726 5725 5725 5725 5721 5721 5720 5718 5716 5714 5711 5709 5706 5703 5699 5695 5692 5689 5687 5684 5681 5678 5676 5674 5671 5669 5665 5663 5660 5657 5655 5652 5649 5646 5644 5641 5638 5636 5634 5633 5632 5633 5633 5632
5724 5723 5721 5720 5716 5712 5713 5715 5712 5713 5711 5711 5710 5707 5701 5696 5693 5690 5687 5682 5678 5674 5671 5669 5665 5662 5660 5657 5655 5652 5649 5647 5643 5640 5637 5634 5631 5628 5625 5622 5620 5617 5615 5614 5611 5611 5610 5610 5610
5711 5709 5709 5707 5703 5700 5700 5701 5699 5699 5698 5695 5692 5691 5689 5685 5679 5676 5671 5666 5662 5658 5654 5651 5648 5645 5641 5637 5634 5631 5628 5625 5621 5618 5616 5614 5610 5605 5601 5599 5598 5594 5591 5588 5586 5585 5586 5587 5589
5698 5697 5696 5691 5692 5687 5683 5691 5685 5684 5681 5676 5676 5675 5672 5668 5663 5659 5655 5651 5646 5641 5637 5633 5629 5626 5622 5617 5613 5610 5606 5602 5598 5594 5591 5588 5585 5581 5578 5576 5572 5568 5566 5562 5561 5560 5559 5557 5558